Zurück zum Katalog

NOAA 16 DEB

AktivSSO
NORAD 42385·DEBRIS·🇺🇸 United States

Gestartet Sep 21, 2000 von Vandenberg Space Force Base

Loading…

Nächste Überflüge (nächste 24 Stunden)

TLE

AktuellSource: Space-Track

Epoche: Sep 13, 2026, 22:51 UTC

1 42385U 00055SD  26256.95266206  .00002993  00000-0  10423-2 0  9994
2 42385  98.6464 336.8856 0004955 295.6655  64.4019 14.36141756540372

Verfolge NOAA 16 DEB in Echtzeit mit AllMySat

Download on the App Store